OPS 4682 DEB, 38403

Orbit data source: Space-Track

OPS 4682 DEB, 38403 is space debris in LEO originally from a launch on Sat, 03 Apr 1965 UTC launched from the Air Force Western Test Range (AFWTR). Debris objects in space refer to the collection of defunct objects orbiting the Earth. Examples of debris include non-operational satellites, rocket bodies, and fragments generated from explosions, collisions, or faulty payload assembly.

Loading next visibility...
Identifier
38403, 1965-027DG
Orbit
LEO
Country
Flag of USUS
Related business
Manufacturer
Unknown
Mission
Spacecraft
Bus & Motor
Unknown
Mass
Unknown
Launch date (UTC)
1965-04-03 (61 years ago)
Launch vehicle
Unknown
Launch site
Air Force Western Test Range (AFWTR)
Object type
Payload
Rocket body
Debris
Shape & HBR
Unknown shape, 0.1 m
Radar Cross Section
Small (<0.1 m²)

Expand to show TLE details & history
Last TLE update: 2 days ago

TLE from 2 days ago
0 OPS 4682 DEB
1 38403U 65027DG  26117.43248844  .00000110  00000-0  37008-3 0  9995
2 38403  90.2507   9.7253 0027397 334.9798  24.9991 12.94347699655363
Epoch: 2026-04-27T10:22Z
TLE epoch observation values (Epoch: 2026-04-27T10:22:47.001Z)
Latitude
-0.00005°
Longitude
-1.39277°
Altitude
1,268.169 km
Speed
7.23 km/s
True Right ascension
00h 38m 54s
True Declination
0° 00' 00"
Sunlit
Object was in daylight at epoch
Visualization orbit readout
Latitude
Unknown
Longitude
Unknown
Altitude
Unknown
Speed
Unknown
Apparent Right ascension
Unknown
Apparent Declination
Unknown
Sunlit
N/A
Visualization observer readout
Local Sidereal Time
01:43:32
Azimuth
Unknown
Elevation
Unknown
Doppler factor
Unknown
Orbital elements
Apogee altitude
1,302.434 km
Perigee altitude
1,260.464 km
Semi-major axis
7,659.586 km
Eccentricity
0.00274
Inclination
90.2507°
RAAN
9.7253°
Arg. of periapsis
334.9798°
True anomaly
25.13219°
Mean anomaly
24.9991°
Eccentric anomaly
25.0656°
Mean motion
3.23769 °/min
Orbital period
111.19 mins
BSTAR
0.00037008
Loading maneuver chart data...
Computing Atmospheric mass density...
Loading historical data...
Loading historical data...
Loading historical data...
Loading historical data...
Loading historical data...
Loading historical data...
Loading historical data...

Documentation

Showing up to 5 results
|